• en Suisse
  • Liste des pays
  • À 7 jours
  • Température de l'eau
  • Carte satellitaire
  • Carte météo
  • Widgets météo
  • user-avatar
    Se connecter

    Météo par heure à Mulhule

    Ce jour, 21 Juin, Jeudi

    Heure Température Précipitation Vent Pression Humidité
    00:00 +37°C° 0 mm 5 m/s 754 mmHg 41%
    01:00 +37°C° 0 mm 5 m/s 754 mmHg 42%
    02:00 +36°C° 0 mm 5 m/s 754 mmHg 43%
    03:00 +36°C° 0 mm 4 m/s 754 mmHg 42%
    04:00 +36°C° 0 mm 4 m/s 754 mmHg 44%
    05:00 +35°C° 0 mm 3 m/s 754 mmHg 45%
    06:00 +35°C° 0 mm 3 m/s 754 mmHg 46%
    07:00 +37°C° 0 mm 3 m/s 754 mmHg 41%
    08:00 +38°C° 0 mm 3 m/s 754 mmHg 36%
    09:00 +41°C° 0 mm 4 m/s 755 mmHg 31%
    10:00 +42°C° 0 mm 4 m/s 754 mmHg 27%
    11:00 +43°C° 0 mm 5 m/s 754 mmHg 24%
    12:00 +46°C° 0 mm 6 m/s 754 mmHg 21%
    13:00 +46°C° 0 mm 7 m/s 754 mmHg 22%
    14:00 +45°C° 0 mm 7 m/s 753 mmHg 23%
    15:00 +45°C° 0 mm 8 m/s 753 mmHg 23%
    16:00 +44°C° 0 mm 8 m/s 752 mmHg 27%
    17:00 +43°C° 0 mm 8 m/s 752 mmHg 31%
    18:00 +40°C° 0 mm 8 m/s 752 mmHg 35%
    19:00 +40°C° 0 mm 8 m/s 752 mmHg 38%
    20:00 +39°C° 0 mm 8 m/s 752 mmHg 40%
    21:00 +39°C° 0 mm 8 m/s 753 mmHg 42%
    22:00 +39°C° 0 mm 7 m/s 753 mmHg 41%
    23:00 +39°C° 0 mm 7 m/s 753 mmHg 39%

    Demain, 22 Juin, Vendredi

    Heure Température Précipitation Vent Pression Humidité
    00:00 +39°C° 0 mm 7 m/s 753 mmHg 38%
    01:00 +38°C° 0 mm 6 m/s 753 mmHg 39%
    02:00 +37°C° 0 mm 5 m/s 752 mmHg 40%
    03:00 +37°C° 0 mm 5 m/s 752 mmHg 40%
    04:00 +36°C° 0 mm 4 m/s 752 mmHg 41%
    05:00 +36°C° 0 mm 4 m/s 752 mmHg 42%
    06:00 +35°C° 0 mm 3 m/s 752 mmHg 43%
    07:00 +37°C° 0 mm 4 m/s 752 mmHg 38%
    08:00 +40°C° 0 mm 6 m/s 753 mmHg 34%
    09:00 +41°C° 0 mm 7 m/s 753 mmHg 29%
    10:00 +44°C° 0 mm 7 m/s 753 mmHg 26%
    11:00 +45°C° 0 mm 7 m/s 753 mmHg 23%
    12:00 +46°C° 0 mm 8 m/s 752 mmHg 21%
    13:00 +46°C° 0 mm 8 m/s 752 mmHg 21%
    14:00 +46°C° 0 mm 8 m/s 751 mmHg 22%
    15:00 +46°C° 0 mm 7 m/s 751 mmHg 23%
    16:00 +44°C° 0 mm 7 m/s 750 mmHg 29%
    17:00 +43°C° 0 mm 7 m/s 750 mmHg 35%
    18:00 +40°C° 0 mm 6 m/s 750 mmHg 42%
    19:00 +39°C° 0 mm 6 m/s 751 mmHg 45%
    20:00 +39°C° 0 mm 6 m/s 751 mmHg 48%
    21:00 +37°C° 0 mm 5 m/s 752 mmHg 51%
    22:00 +37°C° 0 mm 5 m/s 752 mmHg 50%
    23:00 +37°C° 0 mm 5 m/s 752 mmHg 50%

    Après-demain, 23 Juin, Samedi

    Heure Température Précipitation Vent Pression Humidité
    00:00 +37°C° 0 mm 5 m/s 752 mmHg 50%
    01:00 +37°C° 0 mm 5 m/s 751 mmHg 50%
    02:00 +36°C° 0 mm 4 m/s 751 mmHg 49%
    03:00 +36°C° 0 mm 4 m/s 751 mmHg 49%
    04:00 +36°C° 0 mm 3 m/s 751 mmHg 50%
    05:00 +36°C° 0 mm 2 m/s 751 mmHg 50%
    06:00 +36°C° 0 mm 2 m/s 751 mmHg 50%
    07:00 +37°C° 0 mm 2 m/s 752 mmHg 45%
    08:00 +38°C° 0 mm 2 m/s 753 mmHg 40%
    09:00 +40°C° 0 mm 2 m/s 753 mmHg 35%
    10:00 +42°C° 0 mm 3 m/s 753 mmHg 32%
    11:00 +43°C° 0 mm 3 m/s 753 mmHg 28%
    12:00 +44°C° 0 mm 4 m/s 753 mmHg 25%
    13:00 +44°C° 0 mm 4 m/s 752 mmHg 26%
    14:00 +44°C° 0 mm 4 m/s 751 mmHg 27%
    15:00 +44°C° 0 mm 4 m/s 751 mmHg 28%
    16:00 +43°C° 0 mm 3 m/s 750 mmHg 29%
    17:00 +42°C° 0 mm 3 m/s 750 mmHg 31%
    18:00 +40°C° 0 mm 3 m/s 750 mmHg 33%
    19:00 +40°C° 0 mm 3 m/s 751 mmHg 31%
    20:00 +40°C° 0 mm 2 m/s 751 mmHg 29%
    21:00 +40°C° 0 mm 2 m/s 752 mmHg 27%
    22:00 +40°C° 0 mm 2 m/s 752 mmHg 28%
    23:00 +39°C° 0 mm 2 m/s 752 mmHg 29%

    24 Juin, Dimanche

    Heure Température Précipitation Vent Pression Humidité
    00:00 +39°C° 0 mm 2 m/s 752 mmHg 29%
    01:00 +37°C° 0 mm 1 m/s 751 mmHg 32%
    02:00 +36°C° 0 mm 1 m/s 751 mmHg 34%
    03:00 +36°C° 0 mm 1 m/s 750 mmHg 36%
    04:00 +35°C° 0 mm 1 m/s 751 mmHg 38%
    05:00 +35°C° 0 mm 1 m/s 751 mmHg 40%
    06:00 +34°C° 0 mm 1 m/s 752 mmHg 42%
    07:00 +36°C° 0 mm 1 m/s 752 mmHg 39%
    08:00 +38°C° 0 mm 2 m/s 753 mmHg 36%
    09:00 +39°C° 0 mm 2 m/s 754 mmHg 34%
    10:00 +40°C° 0 mm 2 m/s 753 mmHg 30%
    11:00 +41°C° 0 mm 2 m/s 753 mmHg 27%
    12:00 +43°C° 0 mm 2 m/s 753 mmHg 24%
    13:00 +44°C° 0 mm 3 m/s 752 mmHg 22%
    14:00 +45°C° 0 mm 3 m/s 751 mmHg 21%
    15:00 +45°C° 0 mm 4 m/s 751 mmHg 20%
    16:00 +45°C° 0 mm 6 m/s 751 mmHg 23%
    17:00 +44°C° 0 mm 7 m/s 751 mmHg 27%
    18:00 +42°C° 0 mm 9 m/s 751 mmHg 31%
    19:00 +41°C° 0 mm 8 m/s 752 mmHg 34%
    20:00 +40°C° 0 mm 8 m/s 752 mmHg 37%
    21:00 +40°C° 0 mm 7 m/s 753 mmHg 39%
    22:00 +39°C° 0 mm 7 m/s 753 mmHg 42%
    23:00 +39°C° 0 mm 6 m/s 753 mmHg 46%

    25 Juin, Lundi

    Heure Température Précipitation Vent Pression Humidité
    00:00 +39°C° 0 mm 6 m/s 753 mmHg 49%
    01:00 +37°C° 0,1 mm 5 m/s 753 mmHg 50%
    02:00 +37°C° 0,1 mm 5 m/s 752 mmHg 52%
    03:00 +36°C° 0,1 mm 4 m/s 752 mmHg 53%
    04:00 +37°C° 0 mm 4 m/s 752 mmHg 51%
    05:00 +37°C° 0 mm 4 m/s 753 mmHg 49%
    06:00 +37°C° 0 mm 3 m/s 753 mmHg 47%
    07:00 +38°C° 0 mm 3 m/s 753 mmHg 42%
    08:00 +40°C° 0 mm 4 m/s 754 mmHg 38%
    09:00 +41°C° 0 mm 4 m/s 754 mmHg 33%
    10:00 +42°C° 0 mm 4 m/s 754 mmHg 30%
    11:00 +43°C° 0 mm 4 m/s 753 mmHg 27%
    12:00 +43°C° 0 mm 4 m/s 753 mmHg 24%
    13:00 +44°C° 0 mm 4 m/s 752 mmHg 23%
    14:00 +46°C° 0 mm 5 m/s 752 mmHg 22%
    15:00 +46°C° 0 mm 5 m/s 751 mmHg 21%
    16:00 +45°C° 0 mm 6 m/s 751 mmHg 24%
    17:00 +44°C° 0 mm 7 m/s 751 mmHg 28%
    18:00 +41°C° 0 mm 8 m/s 751 mmHg 31%
    19:00 +41°C° 0 mm 8 m/s 752 mmHg 33%
    20:00 +40°C° 0 mm 8 m/s 753 mmHg 35%
    21:00 +40°C° 0 mm 8 m/s 753 mmHg 37%
    22:00 +40°C° 0 mm 7 m/s 753 mmHg 38%
    23:00 +39°C° 0 mm 6 m/s 753 mmHg 39%

    26 Juin, Mardi

    Heure Température Précipitation Vent Pression Humidité
    00:00 +39°C° 0 mm 6 m/s 752 mmHg 40%
    01:00 +39°C° 0 mm 5 m/s 752 mmHg 40%
    02:00 +37°C° 0 mm 4 m/s 752 mmHg 41%
    03:00 +37°C° 0 mm 3 m/s 751 mmHg 42%
    04:00 +37°C° 0 mm 3 m/s 752 mmHg 43%
    05:00 +37°C° 0 mm 3 m/s 752 mmHg 44%
    06:00 +36°C° 0 mm 3 m/s 753 mmHg 45%
    07:00 +37°C° 0 mm 3 m/s 753 mmHg 41%
    08:00 +38°C° 0 mm 3 m/s 754 mmHg 37%
    09:00 +39°C° 0 mm 3 m/s 754 mmHg 33%
    10:00 +40°C° 0 mm 3 m/s 754 mmHg 31%
    11:00 +42°C° 0 mm 4 m/s 753 mmHg 28%
    12:00 +43°C° 0 mm 4 m/s 753 mmHg 25%
    13:00 +45°C° 0 mm 5 m/s 752 mmHg 24%
    14:00 +46°C° 0 mm 5 m/s 751 mmHg 23%
    15:00 +46°C° 0 mm 6 m/s 751 mmHg 21%
    16:00 +45°C° 0 mm 7 m/s 751 mmHg 24%
    17:00 +44°C° 0 mm 7 m/s 751 mmHg 28%
    18:00 +43°C° 0 mm 8 m/s 751 mmHg 31%
    19:00 +41°C° 0 mm 7 m/s 751 mmHg 32%
    20:00 +41°C° 0 mm 6 m/s 752 mmHg 33%
    21:00 +40°C° 0 mm 5 m/s 752 mmHg 35%
    22:00 +40°C° 0 mm 5 m/s 752 mmHg 35%
    23:00 +40°C° 0 mm 5 m/s 752 mmHg 36%
    Voir plus